| time (UTC) | temp F | wind direction | speed MPH | gust MPH | rain 1hr in | rain 24hr in | rain mn in | humidity % | barometer mb |
| 20260506134544 | 27 | 34 | 1.0 | 3.0 | 0.00 | 0.24 | 0.00 | 91 | 1032.4 |
| 20260506133044 | 26 | 60 | 0.0 | 2.0 | 0.00 | 0.24 | 0.00 | 91 | 1032.3 |
| 20260506131543 | 26 | 321 | 0.0 | 3.0 | 0.00 | 0.24 | 0.00 | 91 | 1031.7 |
| 20260506130040 | 26 | 315 | 0.0 | 4.0 | 0.00 | 0.24 | 0.00 | 91 | 1031.6 |
| 20260506124540 | 26 | 318 | 1.0 | 6.0 | 0.00 | 0.24 | 0.00 | 91 | 1031.4 |
| 20260506123039 | 26 | 35 | 1.0 | 5.0 | 0.00 | 0.24 | 0.00 | 92 | 1030.9 |
| 20260506121542 | 26 | 346 | 0.0 | 2.0 | 0.00 | 0.24 | 0.00 | 92 | 1030.5 |
| 20260506120037 | 26 | 55 | 0.0 | 1.0 | 0.00 | 0.24 | 0.00 | 92 | 1030.3 |
| 20260506114543 | 26 | 27 | 0.0 | 4.0 | 0.00 | 0.24 | 0.00 | 92 | 1030.3 |
| 20260506113034 | 26 | 58 | 0.0 | 3.0 | 0.00 | 0.24 | 0.00 | 92 | 1030.2 |
| 20260506111536 | 26 | 269 | 0.0 | 3.0 | 0.00 | 0.24 | 0.00 | 92 | 1029.9 |
| 20260506110031 | 27 | 30 | 0.0 | 2.0 | 0.00 | 0.24 | 0.00 | 92 | 1029.5 |
| 20260506104527 | 27 | 50 | 0.0 | 4.0 | 0.00 | 0.24 | 0.00 | 92 | 1029.4 |
| 20260506103025 | 27 | 34 | 0.0 | 4.0 | 0.00 | 0.24 | 0.00 | 91 | 1029.3 |
| 20260506101527 | 27 | 327 | 1.0 | 5.0 | 0.00 | 0.24 | 0.00 | 91 | 1029.2 |
| 20260506100022 | 27 | 348 | 1.0 | 7.0 | 0.00 | 0.24 | 0.00 | 91 | 1029.1 |
| 20260506094520 | 27 | 305 | 0.0 | 3.0 | 0.00 | 0.24 | 0.00 | 91 | 1029.0 |
| 20260506093019 | 27 | 23 | 0.0 | 3.0 | 0.00 | 0.24 | 0.00 | 91 | 1028.6 |
| 20260506091522 | 28 | 31 | 1.0 | 3.0 | 0.00 | 0.24 | 0.00 | 91 | 1028.4 |
| 20260506090019 | 28 | 28 | 0.0 | 3.0 | 0.00 | 0.24 | 0.00 | 91 | 1028.3 |
| 20260506084516 | 28 | 55 | 1.0 | 6.0 | 0.00 | 0.24 | 0.00 | 91 | 1028.3 |
| 20260506083015 | 27 | 315 | 1.0 | 5.0 | 0.00 | 0.24 | 0.00 | 91 | 1028.3 |
| 20260506081513 | 27 | 303 | 0.0 | 3.0 | 0.00 | 0.24 | 0.00 | 92 | 1028.0 |
| 20260506073009 | 28 | 46 | 0.0 | 3.0 | 0.00 | 0.24 | 0.00 | 92 | 1027.8 |
| 20260506071507 | 28 | 39 | 0.0 | 4.0 | 0.00 | 0.24 | 0.00 | 92 | 1027.7 |
| 20260506061503 | 28 | 105 | 0.0 | 4.0 | 0.00 | 0.24 | 0.24 | 93 | 1027.3 |
| 20260506044555 | 28 | 42 | 0.0 | 2.0 | 0.00 | 0.24 | 0.24 | 94 | 1026.7 |
| 20260506043054 | 28 | 44 | 0.0 | 3.0 | 0.00 | 0.24 | 0.24 | 94 | 1026.0 |
| 20260506041556 | 29 | 317 | 0.0 | 2.0 | 0.00 | 0.24 | 0.24 | 94 | 1026.2 |
| 20260506040100 | 29 | 313 | 0.0 | 1.0 | 0.00 | 0.24 | 0.24 | 94 | 1025.8 |
| 20260506034604 | 29 | 51 | 0.0 | 3.0 | 0.00 | 0.24 | 0.24 | 94 | 1025.6 |
| 20260506033048 | 29 | 66 | 0.0 | 4.0 | 0.00 | 0.24 | 0.24 | 94 | 1025.4 |
| 20260506031557 | 29 | 314 | 0.0 | 2.0 | 0.00 | 0.24 | 0.24 | 94 | 1025.2 |
| 20260506030044 | 29 | 314 | 0.0 | 1.0 | 0.00 | 0.24 | 0.24 | 94 | 1024.5 |
| 20260506024543 | 30 | 313 | 0.0 | 1.0 | 0.00 | 0.24 | 0.24 | 94 | 1024.2 |
| 20260506023042 | 30 | 314 | 0.0 | 2.0 | 0.00 | 0.24 | 0.24 | 94 | 1023.9 |
| 20260506021539 | 30 | 313 | 0.0 | 2.0 | 0.00 | 0.24 | 0.24 | 94 | 1023.5 |
| 20260506020039 | 30 | 313 | 0.0 | 2.0 | 0.00 | 0.24 | 0.24 | 94 | 1023.4 |
| 20260506014538 | 31 | 313 | 0.0 | 1.0 | 0.00 | 0.25 | 0.24 | 94 | 1023.0 |
| 20260506013036 | 31 | 313 | 0.0 | 3.0 | 0.00 | 0.25 | 0.24 | 94 | 1022.7 |
| 20260506011537 | 31 | 131 | 0.0 | 0.0 | 0.00 | 0.25 | 0.24 | 94 | 1022.5 |
| 20260506010041 | 31 | 130 | 0.0 | 1.0 | 0.00 | 0.25 | 0.24 | 94 | 1022.4 |
| 20260506004536 | 31 | 131 | 0.0 | 2.0 | 0.00 | 0.25 | 0.24 | 94 | 1022.2 |
| 20260506003037 | 31 | 113 | 0.0 | 2.0 | 0.00 | 0.25 | 0.24 | 94 | 1022.3 |
| 20260506001531 | 31 | 120 | 0.0 | 3.0 | 0.00 | 0.25 | 0.24 | 94 | 1022.1 |
| 20260506000032 | 32 | 107 | 1.0 | 5.0 | 0.00 | 0.25 | 0.24 | 94 | 1021.6 |
| 20260505234530 | 32 | 128 | 3.0 | 6.0 | 0.01 | 0.25 | 0.24 | 94 | 1021.0 |
| 20260505233030 | 32 | 128 | 3.0 | 8.0 | 0.02 | 0.25 | 0.24 | 94 | 1020.7 |
| 20260505231532 | 33 | 115 | 1.0 | 7.0 | 0.02 | 0.25 | 0.24 | 94 | 1020.5 |
| 20260505230031 | 33 | 59 | 3.0 | 9.0 | 0.03 | 0.25 | 0.24 | 94 | 1019.8 |
| 20260505224524 | 33 | 128 | 2.0 | 8.0 | 0.04 | 0.24 | 0.23 | 94 | 1019.7 |
| 20260505223023 | 33 | 119 | 2.0 | 7.0 | 0.03 | 0.23 | 0.22 | 94 | 1019.3 |
| 20260505221521 | 33 | 131 | 3.0 | 10.0 | 0.04 | 0.23 | 0.22 | 94 | 1019.3 |
| 20260505220019 | 33 | 78 | 1.0 | 7.0 | 0.03 | 0.21 | 0.20 | 94 | 1019.4 |
| 20260505214518 | 33 | 105 | 2.0 | 8.0 | 0.03 | 0.20 | 0.19 | 94 | 1019.6 |
| 20260505213017 | 33 | 119 | 2.0 | 7.0 | 0.04 | 0.20 | 0.19 | 94 | 1019.5 |
| 20260505211516 | 33 | 116 | 4.0 | 9.0 | 0.04 | 0.19 | 0.18 | 94 | 1019.5 |
| 20260505210023 | 33 | 96 | 2.0 | 8.0 | 0.04 | 0.18 | 0.17 | 93 | 1019.6 |
| 20260505204515 | 33 | 121 | 0.0 | 7.0 | 0.04 | 0.17 | 0.16 | 93 | 1019.7 |
| 20260505203013 | 33 | 128 | 3.0 | 6.0 | 0.05 | 0.16 | 0.15 | 93 | 1019.5 |
| 20260505201510 | 33 | 116 | 1.0 | 5.0 | 0.06 | 0.15 | 0.14 | 93 | 1019.3 |
| 20260505200017 | 34 | 124 | 2.0 | 8.0 | 0.07 | 0.14 | 0.13 | 93 | 1019.5 |
| 20260505194509 | 34 | 119 | 5.0 | 9.0 | 0.06 | 0.13 | 0.12 | 93 | 1019.5 |
| 20260505193006 | 34 | 119 | 3.0 | 7.0 | 0.06 | 0.11 | 0.10 | 93 | 1019.6 |
| 20260505191506 | 34 | 115 | 1.0 | 7.0 | 0.05 | 0.09 | 0.08 | 92 | 1019.4 |
| 20260505190004 | 34 | 101 | 2.0 | 6.0 | 0.04 | 0.07 | 0.06 | 92 | 1019.3 |
| 20260505184503 | 34 | 107 | 3.0 | 8.0 | 0.04 | 0.07 | 0.06 | 91 | 1019.2 |
| 20260505183001 | 35 | 149 | 0.0 | 1.0 | 0.02 | 0.05 | 0.04 | 91 | 1019.3 |
| 20260505181601 | 35 | 149 | 0.0 | 0.0 | 0.02 | 0.04 | 0.03 | 91 | 1019.4 |
| 20260505180100 | 34 | 149 | 0.0 | 1.0 | 0.01 | 0.03 | 0.02 | 91 | 1019.3 |
| 20260505174606 | 34 | 35 | 0.0 | 2.0 | 0.01 | 0.03 | 0.02 | 91 | 1019.3 |
| 20260505173100 | 34 | 311 | 0.0 | 3.0 | 0.01 | 0.03 | 0.02 | 91 | 1019.3 |
| 20260505171604 | 33 | 42 | 0.0 | 2.0 | 0.00 | 0.02 | 0.01 | 90 | 1019.5 |
| 20260505170057 | 33 | 340 | 0.0 | 5.0 | 0.01 | 0.02 | 0.01 | 90 | 1019.4 |
| 20260505164616 | 33 | 23 | 0.0 | 3.0 | 0.01 | 0.02 | 0.01 | 89 | 1019.3 |
| 20260505163102 | 34 | 36 | 0.0 | 3.0 | 0.01 | 0.02 | 0.01 | 89 | 1019.1 |
| 20260505161600 | 34 | 326 | 0.0 | 2.0 | 0.01 | 0.02 | 0.01 | 90 | 1019.1 |
| 20260505153044 | 34 | 57 | 0.0 | 3.0 | 0.00 | 0.01 | 0.00 | 88 | 1018.9 |
| 20260505151543 | 35 | 126 | 0.0 | 2.0 | 0.00 | 0.01 | 0.00 | 88 | 1018.9 |